Luke AFB, AZ

9:45 AM MST on December 03, 2016 (GMT -0700)
Luke Air Force Base

Weather History for KLUF - January, 2014

Change the Weather History Date:

Sunday, January 19, 2014

  Actual Average Record
Temperature  
Mean Temperature 56 °F -  
Max Temperature 72 °F 69 °F 71 °F (2015)
Min Temperature 40 °F 38 °F 40 °F (2016)
Degree Days  
Heating Degree Days 9    
Growing Degree Days 6 (Base 50)    
Moisture  
Dew Point 29 °F    
Average Humidity 43    
Maximum Humidity 65    
Minimum Humidity 18    
Precipitation  
Precipitation 0.00 in - - ()
Sea Level Pressure  
Sea Level Pressure 30.10 in    
Wind  
Wind Speed 4 mph (North)    
Max Wind Speed 10 mph    
Max Gust Speed -    
Visibility 10 miles    
Events      
Averages and records for this station are not official NWS values.
T = Trace of Precipitation, MM = Missing Value Source: NWS Daily Summary

Daily Weather History Graph

Daily Weather History Graph

Search for Another Location

Airport or City:

Trip Planner

Search our weather history database for the weather conditions in past years. The results will help you decide how hot, cold, wet, or windy it might be!

Date:

Astronomy

Jan. 19, 2014 Rise Set
Actual Time 7:32 AM MST 5:48 PM MST
Civil Twilight 7:05 AM MST 6:15 PM MST
Nautical Twilight 6:35 AM MST 6:45 PM MST
Astronomical Twilight 6:05 AM MST 7:15 PM MST
Moon 9:17 PM MST (1/19) 9:16 AM MST (1/19)
Length of Visible Light 11h 09m
Length of Day
10h 15m
Waning Gibbous, 89% of the Moon is Illuminated
Jan 19
Waning Gibbous
Jan 23
Last Quarter
Jan 30
New
Feb 6
First Quarter
Feb 14
Full

Hourly Weather History & Observations

Time (MST) Temp. Windchill Dew Point Humidity Pressure Visibility Wind Dir Wind Speed Gust Speed Precip Events Conditions
12:58 AM 46.9 °F - 29.5 °F 51% 30.09 in 10.0 mi North 5.8 mph - N/A   Clear
1:58 AM 45.3 °F 41.6 °F 30.4 °F 56% 30.09 in 10.0 mi North 6.9 mph - N/A   Clear
2:58 AM 44.2 °F 41.8 °F 29.8 °F 57% 30.09 in 10.0 mi NNE 4.6 mph - N/A   Clear
3:58 AM 42.4 °F 38.8 °F 28.8 °F 58% 30.10 in 10.0 mi North 5.8 mph - N/A   Clear
4:58 AM 42.3 °F 39.4 °F 28.2 °F 58% 30.10 in 10.0 mi North 4.6 mph - N/A   Clear
5:58 AM 41.2 °F 36.0 °F 29.3 °F 63% 30.12 in 10.0 mi North 8.1 mph - N/A   Clear
6:58 AM 40.6 °F 36.7 °F 29.8 °F 65% 30.13 in 10.0 mi North 5.8 mph - N/A   Partly Cloudy
7:58 AM 40.6 °F 38.6 °F 29.3 °F 64% 30.16 in 10.0 mi NE 3.5 mph - N/A   Clear
8:58 AM 43.9 °F 41.3 °F 30.2 °F 59% 30.17 in 10.0 mi NNE 4.6 mph - N/A   Clear
9:58 AM 55.0 °F - 32.4 °F 42% 30.17 in 10.0 mi East 2.3 mph - N/A   Clear
10:58 AM 60.3 °F - 26.1 °F 27% 30.18 in 10.0 mi Calm Calm - N/A   Clear
11:58 AM 63.3 °F - 23.2 °F 22% 30.16 in 10.0 mi Calm Calm - N/A   Clear
12:58 PM 67.3 °F - 22.3 °F 18% 30.11 in 10.0 mi Calm Calm - N/A   Clear
1:58 PM 70.3 °F - 25.3 °F 19% 30.07 in 10.0 mi NE 2.3 mph - N/A   Clear
2:58 PM 71.1 °F - 25.9 °F 18% 30.06 in 10.0 mi WSW 2.3 mph - N/A   Partly Cloudy
3:58 PM 72.1 °F - 26.2 °F 18% 30.06 in 10.0 mi NW 1.2 mph - N/A   Clear
4:58 PM 70.3 °F - 26.6 °F 20% 30.06 in 10.0 mi SSW 2.3 mph - N/A   Clear
5:58 PM 64.8 °F - 34.9 °F 33% 30.06 in 10.0 mi Calm Calm - N/A   Clear
6:58 PM 59.5 °F - 35.4 °F 41% 30.07 in 10.0 mi NW 2.3 mph - N/A   Clear
7:58 PM 53.8 °F - 35.2 °F 50% 30.09 in 10.0 mi NNW 6.9 mph - N/A   Clear
8:58 PM 51.6 °F - 32.9 °F 49% 30.09 in 10.0 mi NNW 5.8 mph - N/A   Clear
9:58 PM 50.7 °F - 32.2 °F 49% 30.10 in 10.0 mi NNE 4.6 mph - N/A   Clear
10:58 PM 49.1 °F - 30.6 °F 49% 30.10 in 10.0 mi North 10.4 mph - N/A   Clear
11:58 PM 48.4 °F - 30.4 °F 50% 30.09 in 10.0 mi North 3.5 mph - N/A   Clear